Regional Weather Roundup
Issued by NWS State College, PA

Home | Current Version | Previous Version | Graphics & Text | Print | Product List | Glossary On
Versions: 1 2 3 4 5 6 7 8 9 10 11 12 13 14 15 16 17 18 19 20 21 22 23 24 25 26 27 28 29 30 31 32 33 34 35 36 37 38 39 40 41 42 43 44 45 46 47 48 49 50
666
ASUS41 KCTP 270910
RWRCTP

REGIONAL WEATHER ROUNDUP
NATIONAL WEATHER SERVICE STATE COLLEGE PA
500 AM EDT FRI APR 27 2018

Note: "fair" indicates few or no clouds below 12,000 feet with no
significant weather and/or obstructions to visibility.

* = STATION THAT DOES NOT REPORT PRECIPITATION /E.G. RAIN...SNOW...ETC/
    THUNDER OR FOG.

PAZ002>004-007>009-013>016-020>023-029>032-271000-
WESTERN PENNSYLVANIA

CITY           SKY/WX    TMP DP  RH WIND       PRES   REMARKS
ERIE           FAIR      42  34  73 S3        29.79S
MEADVILLE      FAIR      40  35  83 CALM      29.78S
FRANKLIN*      FAIR      39  35  86 E3        29.79F
NEW CASTLE     FAIR      42  40  92 CALM      29.80S
BEAVER COUNTY  NOT AVBL
BUTLER*        FAIR      43  39  86 CALM      29.79S
PITTSBURGH INT CLOUDY    46  39  76 SE3       29.78S
PITTSBURGH     FAIR      49  37  63 CALM      29.77F
INDIANA*       CLOUDY    45  39  81 CALM      29.83S
LATROBE        CLOUDY    45  43  93 CALM      29.79F
WASHINGTON CO* FAIR      42  38  85 CALM      29.81S
$$

PAZ004>006-010>012-017>019-024>028-033>037-041-042-045-046-049>053-271000-
CENTRAL PENNSYLVANIA

CITY           SKY/WX    TMP DP  RH WIND       PRES   REMARKS
BRADFORD       FAIR      34  30  85 CALM      29.80S
DUBOIS         FAIR      43  33  68 E6        29.79S
CLEARFIELD     CLOUDY    41  36  82 N5        29.81S
JOHNSTOWN      CLOUDY    48  33  56 CALM      29.78F
ALTOONA        CLOUDY    49  40  71 CALM      29.80F
STATE COLLEGE  FAIR      46  37  71 CALM      29.81S
WILLIAMSPORT   FAIR      46  40  79 NW3       29.81S
SELINSGROVE    CLOUDY    47  44  90 CALM      29.82S
FT INDIANTOWN  DRIZZLE   50  45  81 CALM      29.82R
CAPITAL CITY   LGT RAIN  55  46  71 CALM      29.82R
HARRISBURG     LGT RAIN  53  47  79 N5        29.82R
YORK           CLOUDY    50  47  89 W5        29.82R
$$

PAZ038>040-043-044-047-048-054-055-060>062-067>071-271000-
EASTERN PENNSYLVANIA

CITY           SKY/WX    TMP DP  RH WIND       PRES   REMARKS
SCRANTON       FAIR      49  41  74 NE6       29.82S
MOUNT POCONO   FAIR      48  39  71 E5        29.83F
ALLENTOWN      CLOUDY    53  43  68 E6        29.82F
QUAKERTOWN*    SUNNY     50  46  87 CALM      29.83S
READING        CLOUDY    51  46  83 N3        29.81S
LANCASTER      CLOUDY    52  46  80 N5        29.81R
COATESVILLE    PTSUNNY   52  43  71 CALM      29.83R
POTTSTOWN      FAIR      51  44  77 CALM      29.83S
BLUE BELL      FAIR      48  46  93 CALM      29.83S
DOYLESTOWN     FAIR      52  44  74 NE6       29.82S
WILLOW GROVE   NOT AVBL
NORTH PHILA    FAIR      54  46  74 NE5       29.83F
PHILADELPHIA   CLOUDY    54  46  74 NE3       29.81F
$$




USA.gov is the U.S. government's official web portal to all federal, state and local government web resources and services.